Private Wetterstation Wechselburg
Wetterdaten: Sonntag, 04.03.2018
Datum Zeit Temp. +2m Bodentemp. Temp.+5cm Temp. Wind Windchill X Diff Temp. Feuchte +2m Feuchte +5cm Luftdruck Regen Wind Richtung Richtung Sonnenschein Taupunkt Windchill Windben
04.03.2018 00:00 -7,3 C -1,1 C -7,3 C -7,6 C -8,2 C 0,0 C 67 % 71 % 1006,1 hPa 0,0 l/m 0,8 km/h (0 Bft) O-NO 67 0 min -12,4 C -8,2 C 2,1 km/h (1 Bft)
04.03.2018 00:05 -7,1 C -1,1 C -7,3 C -7,5 C -8,2 C 0,0 C 67 % 71 % 1006,1 hPa 0,0 l/m 1,4 km/h (1 Bft) N-NO 22 0 min -12,2 C -8,2 C 1,8 km/h (1 Bft)
04.03.2018 00:11 -7,1 C -1,1 C -7,3 C -7,5 C -8,2 C 0,0 C 67 % 71 % 1006,1 hPa 0,0 l/m 1,0 km/h (0 Bft) N 0 0 min -12,2 C -8,2 C 0,0 km/h (0 Bft)
04.03.2018 00:26 -7,3 C -1,1 C -7,3 C -7,6 C -8,3 C 0,0 C 67 % 71 % 1006,1 hPa 0,0 l/m 0,3 km/h (0 Bft) O-NO 67 0 min -12,4 C -8,3 C 0,0 km/h (0 Bft)
04.03.2018 00:27 -7,3 C -1,1 C -7,3 C -7,6 C -8,3 C 0,0 C 67 % 71 % 1006,1 hPa 0,0 l/m 0,3 km/h (0 Bft) O-NO 67 0 min -12,4 C -8,3 C 0,0 km/h (0 Bft)
04.03.2018 00:35 -7,3 C -1,1 C -7,3 C -7,6 C -8,3 C 0,0 C 67 % 72 % 1006,1 hPa 0,0 l/m 1,1 km/h (1 Bft) NO 45 0 min -12,4 C -8,3 C 3,4 km/h (1 Bft)
04.03.2018 00:40 -7,1 C -1,1 C -7,3 C -7,5 C -8,2 C 0,0 C 67 % 72 % 1006,6 hPa 0,0 l/m 1,4 km/h (1 Bft) NO 45 0 min -12,2 C -8,2 C 2,1 km/h (1 Bft)
04.03.2018 00:45 -7,2 C -1,1 C -7,2 C -7,5 C -8,2 C 0,0 C 67 % 72 % 1006,6 hPa 0,0 l/m 0,8 km/h (0 Bft) O-NO 67 0 min -12,3 C -8,2 C 0,0 km/h (0 Bft)
04.03.2018 00:50 -7,1 C -1,1 C -7,2 C -7,5 C -8,2 C 0,0 C 67 % 72 % 1006,6 hPa 0,0 l/m 0,5 km/h (0 Bft) N-NO 22 0 min -12,2 C -8,2 C 0,0 km/h (0 Bft)
04.03.2018 00:55 -7,3 C -1,1 C -7,2 C -7,6 C -8,2 C 0,0 C 67 % 72 % 1006,6 hPa 0,0 l/m 0,5 km/h (0 Bft) N-NO 22 0 min -12,4 C -8,2 C 2,1 km/h (1 Bft)
04.03.2018 01:00 -7,3 C -1,1 C -7,2 C -7,6 C -8,2 C 0,0 C 68 % 72 % 1006,1 hPa 0,0 l/m 0,5 km/h (0 Bft) N-NO 22 0 min -12,2 C -8,2 C 0,0 km/h (0 Bft)
04.03.2018 01:05 -7,3 C -1,1 C -7,1 C -7,6 C -8,2 C 0,0 C 68 % 72 % 1006,1 hPa 0,0 l/m 0,2 km/h (0 Bft) N-NO 22 0 min -12,2 C -8,2 C 0,0 km/h (0 Bft)
04.03.2018 01:10 -7,3 C -1,1 C -7,3 C -7,6 C -8,3 C 0,0 C 68 % 72 % 1006,1 hPa 0,0 l/m 0,0 km/h (0 Bft) NO 45 0 min -12,2 C -8,3 C 0,0 km/h (0 Bft)
04.03.2018 01:15 -7,3 C -1,1 C -7,3 C -7,6 C -8,3 C 0,0 C 68 % 72 % 1006,1 hPa 0,0 l/m 0,3 km/h (0 Bft) N-NO 22 0 min -12,2 C -8,3 C 0,0 km/h (0 Bft)
04.03.2018 01:20 -7,3 C -1,1 C -7,5 C -7,7 C -8,4 C 0,0 C 68 % 72 % 1006,4 hPa 0,0 l/m 0,3 km/h (0 Bft) O-NO 67 0 min -12,2 C -8,4 C 0,0 km/h (0 Bft)
04.03.2018 01:25 -7,3 C -1,1 C -7,3 C -7,7 C -8,4 C 0,0 C 68 % 72 % 1006,4 hPa 0,0 l/m 0,0 km/h (0 Bft) N-NO 22 0 min -12,2 C -8,4 C 0,0 km/h (0 Bft)
04.03.2018 01:30 -7,4 C -1,1 C -7,3 C -7,7 C -8,4 C 0,0 C 68 % 72 % 1006,4 hPa 0,0 l/m 0,0 km/h (0 Bft) N-NO 22 0 min -12,3 C -8,4 C 0,0 km/h (0 Bft)
04.03.2018 01:35 -7,4 C -1,1 C -7,5 C -7,8 C -8,5 C 0,0 C 68 % 72 % 1006,4 hPa 0,0 l/m 0,0 km/h (0 Bft) O-NO 67 0 min -12,3 C -8,5 C 0,0 km/h (0 Bft)
04.03.2018 01:40 -7,3 C -1,1 C -7,5 C -7,7 C -8,5 C 0,0 C 68 % 72 % 1006,6 hPa 0,0 l/m 0,0 km/h (0 Bft) O-NO 67 0 min -12,2 C -8,5 C 0,0 km/h (0 Bft)
04.03.2018 01:45 -7,5 C -1,1 C -7,5 C -7,9 C -8,6 C 0,0 C 68 % 72 % 1006,6 hPa 0,0 l/m 0,0 km/h (0 Bft) O-NO 67 0 min -12,4 C -8,6 C 0,0 km/h (0 Bft)
04.03.2018 01:50 -7,5 C -1,1 C -7,5 C -7,9 C -8,6 C 0,0 C 68 % 72 % 1006,6 hPa 0,0 l/m 0,0 km/h (0 Bft) O-NO 67 0 min -12,4 C -8,6 C 0,0 km/h (0 Bft)
04.03.2018 01:55 -7,5 C -1,1 C -7,3 C -7,8 C -8,3 C 0,0 C 69 % 73 % 1006,6 hPa 0,0 l/m 0,0 km/h (0 Bft) O-NO 67 0 min -12,2 C -8,3 C 0,0 km/h (0 Bft)
04.03.2018 02:00 -7,3 C -1,1 C -7,3 C -7,6 C -8,1 C 0,0 C 69 % 74 % 1006,2 hPa 0,0 l/m 0,0 km/h (0 Bft) O-NO 67 0 min -12,0 C -8,1 C 0,0 km/h (0 Bft)
04.03.2018 02:05 -7,3 C -1,1 C -7,0 C -7,5 C -7,8 C 0,0 C 69 % 74 % 1006,2 hPa 0,0 l/m 0,0 km/h (0 Bft) O-NO 67 0 min -12,0 C -7,8 C 0,0 km/h (0 Bft)
04.03.2018 02:11 -7,2 C -1,1 C -6,8 C -7,3 C -7,6 C 0,0 C 69 % 73 % 1006,2 hPa 0,0 l/m 0,0 km/h (0 Bft) N 0 0 min -11,9 C -7,6 C 0,0 km/h (0 Bft)
04.03.2018 02:26 -6,9 C -1,1 C -6,5 C -7,0 C -7,1 C 0,0 C 69 % 73 % 1006,7 hPa 0,0 l/m 0,0 km/h (0 Bft) N-NO 22 0 min -11,6 C -7,1 C 0,0 km/h (0 Bft)
04.03.2018 02:35 -6,7 C -1,1 C -6,5 C -6,8 C -7,0 C 0,0 C 69 % 73 % 1006,7 hPa 0,0 l/m 0,5 km/h (0 Bft) O-NO 67 0 min -11,4 C -7,0 C 0,0 km/h (0 Bft)
04.03.2018 02:40 -6,5 C -1,1 C -6,5 C -6,7 C -7,0 C 0,0 C 70 % 73 % 1006,1 hPa 0,0 l/m 0,5 km/h (0 Bft) O-NO 67 0 min -11,0 C -7,0 C 0,0 km/h (0 Bft)
04.03.2018 02:45 -6,5 C -1,1 C -6,5 C -6,7 C -7,2 C 0,0 C 69 % 72 % 1006,1 hPa 0,0 l/m 0,0 km/h (0 Bft) O-NO 67 0 min -11,2 C -7,2 C 0,0 km/h (0 Bft)
04.03.2018 02:50 -6,7 C -1,1 C -6,8 C -6,9 C -7,4 C 0,0 C 69 % 73 % 1006,1 hPa 0,0 l/m 0,0 km/h (0 Bft) N-NO 22 0 min -11,4 C -7,4 C 0,0 km/h (0 Bft)
04.03.2018 02:55 -6,7 C -1,1 C -6,9 C -7,0 C -7,5 C 0,0 C 69 % 73 % 1006,1 hPa 0,0 l/m 0,0 km/h (0 Bft) O-NO 67 0 min -11,4 C -7,5 C 0,0 km/h (0 Bft)
04.03.2018 03:00 -6,8 C -1,1 C -6,9 C -7,0 C -7,5 C 0,0 C 69 % 73 % 1006,4 hPa 0,0 l/m 0,0 km/h (0 Bft) O-NO 67 0 min -11,5 C -7,5 C 0,0 km/h (0 Bft)
04.03.2018 03:05 -6,8 C -1,1 C -6,7 C -7,0 C -7,5 C 0,0 C 69 % 73 % 1006,4 hPa 0,0 l/m 0,0 km/h (0 Bft) O-NO 67 0 min -11,5 C -7,5 C 0,0 km/h (0 Bft)
04.03.2018 03:10 -6,8 C -1,1 C -6,8 C -7,1 C -7,6 C 0,0 C 69 % 73 % 1006,4 hPa 0,0 l/m 0,0 km/h (0 Bft) O-NO 67 0 min -11,5 C -7,6 C 0,0 km/h (0 Bft)
04.03.2018 03:15 -6,9 C -1,1 C -6,8 C -7,1 C -7,6 C 0,0 C 69 % 74 % 1006,4 hPa 0,0 l/m 0,0 km/h (0 Bft) O-NO 67 0 min -11,6 C -7,6 C 0,0 km/h (0 Bft)
04.03.2018 03:20 -6,9 C -1,1 C -6,7 C -7,1 C -7,6 C 0,0 C 69 % 74 % 1006,4 hPa 0,0 l/m 0,2 km/h (0 Bft) O-NO 67 0 min -11,6 C -7,6 C 0,0 km/h (0 Bft)
04.03.2018 03:25 -6,9 C -1,1 C -6,7 C -7,1 C -7,6 C 0,0 C 69 % 74 % 1006,4 hPa 0,0 l/m 0,2 km/h (0 Bft) O-NO 67 0 min -11,6 C -7,6 C 0,0 km/h (0 Bft)
04.03.2018 03:30 -6,9 C -1,1 C -6,7 C -7,1 C -7,6 C 0,0 C 70 % 74 % 1006,4 hPa 0,0 l/m 0,0 km/h (0 Bft) O-NO 67 0 min -11,4 C -7,6 C 0,0 km/h (0 Bft)
04.03.2018 03:35 -6,9 C -1,1 C -6,7 C -7,1 C -7,6 C 0,0 C 70 % 74 % 1006,4 hPa 0,0 l/m 0,0 km/h (0 Bft) O-NO 67 0 min -11,4 C -7,6 C 0,0 km/h (0 Bft)
04.03.2018 03:40 -6,9 C -1,1 C -6,8 C -7,2 C -7,7 C 0,0 C 70 % 74 % 1006,7 hPa 0,0 l/m 0,0 km/h (0 Bft) O-NO 67 0 min -11,4 C -7,7 C 0,0 km/h (0 Bft)
04.03.2018 03:45 -6,9 C -1,1 C -6,9 C -7,2 C -7,9 C 0,0 C 70 % 74 % 1006,7 hPa 0,0 l/m 0,0 km/h (0 Bft) O-NO 67 0 min -11,4 C -7,9 C 0,0 km/h (0 Bft)
04.03.2018 03:50 -6,9 C -1,1 C -6,9 C -7,3 C -8,0 C 0,0 C 70 % 74 % 1006,7 hPa 0,0 l/m 0,0 km/h (0 Bft) O-NO 67 0 min -11,4 C -8,0 C 0,0 km/h (0 Bft)
04.03.2018 03:55 -7,1 C -1,1 C -7,3 C -7,5 C -8,3 C 0,0 C 70 % 74 % 1006,7 hPa 0,0 l/m 0,0 km/h (0 Bft) O-NO 67 0 min -11,6 C -8,3 C 0,0 km/h (0 Bft)
04.03.2018 04:00 -7,2 C -1,1 C -7,3 C -7,6 C -8,4 C 0,0 C 70 % 74 % 1006,7 hPa 0,0 l/m 0,0 km/h (0 Bft) O-NO 67 0 min -11,7 C -8,4 C 0,0 km/h (0 Bft)
04.03.2018 04:05 -7,3 C -1,1 C -7,5 C -7,7 C -8,5 C 0,0 C 70 % 75 % 1006,7 hPa 0,0 l/m 0,0 km/h (0 Bft) O-NO 67 0 min -11,8 C -8,5 C 0,0 km/h (0 Bft)
04.03.2018 04:11 -7,4 C -1,1 C -7,6 C -7,8 C -8,6 C 0,0 C 70 % 75 % 1006,7 hPa 0,0 l/m 0,0 km/h (0 Bft) N 0 0 min -11,9 C -8,6 C 0,0 km/h (0 Bft)
04.03.2018 04:26 -7,5 C -1,1 C -7,7 C -7,9 C -8,8 C 0,0 C 71 % 75 % 1006,6 hPa 0,0 l/m 0,0 km/h (0 Bft) O-NO 67 0 min -11,8 C -8,8 C 0,0 km/h (0 Bft)
04.03.2018 04:35 -7,7 C -1,1 C -7,9 C -8,2 C -9,2 C 0,0 C 71 % 75 % 1006,6 hPa 0,0 l/m 0,0 km/h (0 Bft) O-NO 67 0 min -12,0 C -9,2 C 0,0 km/h (0 Bft)
04.03.2018 04:40 -7,7 C -1,1 C -8,0 C -8,2 C -9,2 C 0,0 C 71 % 76 % 1006,8 hPa 0,0 l/m 0,0 km/h (0 Bft) O-NO 67 0 min -12,0 C -9,2 C 0,0 km/h (0 Bft)
04.03.2018 04:45 -7,9 C -1,1 C -8,1 C -8,3 C -9,2 C 0,0 C 72 % 76 % 1006,8 hPa 0,0 l/m 0,0 km/h (0 Bft) O-NO 67 0 min -12,0 C -9,2 C 0,0 km/h (0 Bft)
04.03.2018 04:50 -7,9 C -1,1 C -8,1 C -8,3 C -9,2 C 0,0 C 72 % 76 % 1006,8 hPa 0,0 l/m 0,0 km/h (0 Bft) O-NO 67 0 min -12,0 C -9,2 C 0,0 km/h (0 Bft)
04.03.2018 04:55 -8,1 C -1,1 C -8,1 C -8,5 C -9,4 C 0,0 C 72 % 77 % 1006,8 hPa 0,0 l/m 0,0 km/h (0 Bft) O-NO 67 0 min -12,2 C -9,4 C 0,0 km/h (0 Bft)
04.03.2018 05:00 -8,1 C -1,1 C -8,1 C -8,5 C -9,4 C 0,0 C 72 % 77 % 1006,3 hPa 0,0 l/m 0,0 km/h (0 Bft) O-NO 67 0 min -12,2 C -9,4 C 0,0 km/h (0 Bft)
04.03.2018 05:05 -8,1 C -1,1 C -8,1 C -8,5 C -9,4 C 0,0 C 72 % 77 % 1006,3 hPa 0,0 l/m 0,0 km/h (0 Bft) O-NO 67 0 min -12,2 C -9,4 C 0,0 km/h (0 Bft)
04.03.2018 05:10 -8,1 C -1,1 C -8,0 C -8,4 C -9,1 C 0,0 C 73 % 78 % 1006,3 hPa 0,0 l/m 0,0 km/h (0 Bft) N-NO 22 0 min -12,1 C -9,1 C 0,0 km/h (0 Bft)
04.03.2018 05:15 -8,1 C -1,1 C -7,8 C -8,3 C -8,8 C 0,0 C 73 % 78 % 1006,3 hPa 0,0 l/m 0,0 km/h (0 Bft) O-NO 67 0 min -12,1 C -8,8 C 1,8 km/h (1 Bft)
04.03.2018 05:20 -8,0 C -1,1 C -7,6 C -8,2 C -8,5 C 0,0 C 74 % 79 % 1006,3 hPa 0,0 l/m 0,3 km/h (0 Bft) O-NO 67 0 min -11,8 C -8,5 C 0,0 km/h (0 Bft)
04.03.2018 05:25 -7,9 C -1,1 C -7,5 C -8,0 C -8,2 C 0,0 C 74 % 79 % 1006,3 hPa 0,0 l/m 0,3 km/h (0 Bft) NO 45 0 min -11,7 C -8,2 C 0,0 km/h (0 Bft)
04.03.2018 05:30 -7,7 C -1,1 C -7,3 C -7,8 C -8,0 C 0,0 C 75 % 79 % 1006,3 hPa 0,0 l/m 0,0 km/h (0 Bft) N-NO 22 0 min -11,3 C -8,0 C 0,0 km/h (0 Bft)
04.03.2018 05:35 -7,7 C -1,1 C -6,9 C -7,6 C -7,6 C 0,1 C 75 % 79 % 1006,3 hPa 0,0 l/m 0,0 km/h (0 Bft) N-NO 22 0 min -11,3 C -7,6 C 0,0 km/h (0 Bft)
04.03.2018 05:40 -7,6 C -1,1 C -6,9 C -7,5 C -7,5 C 0,1 C 75 % 79 % 1006,1 hPa 0,0 l/m 0,2 km/h (0 Bft) N-NO 22 0 min -11,2 C -7,5 C 0,0 km/h (0 Bft)
04.03.2018 05:45 -7,5 C -1,1 C -6,8 C -7,3 C -7,3 C 0,2 C 75 % 78 % 1006,1 hPa 0,0 l/m 0,2 km/h (0 Bft) N-NO 22 0 min -11,1 C -7,3 C 0,0 km/h (0 Bft)
04.03.2018 05:50 -7,3 C -1,1 C -6,7 C -7,3 C -7,3 C 0,0 C 76 % 79 % 1006,1 hPa 0,0 l/m 0,0 km/h (0 Bft) N-NO 22 0 min -10,8 C -7,3 C 0,0 km/h (0 Bft)
04.03.2018 05:55 -7,3 C -1,1 C -6,5 C -7,1 C -7,1 C 0,2 C 76 % 78 % 1006,1 hPa 0,0 l/m 0,0 km/h (0 Bft) N-NO 22 0 min -10,8 C -7,1 C 0,0 km/h (0 Bft)
04.03.2018 06:00 -7,1 C -1,1 C -6,5 C -6,9 C -6,9 C 0,2 C 76 % 78 % 1005,9 hPa 0,0 l/m 0,0 km/h (0 Bft) N-NO 22 0 min -10,6 C -6,9 C 0,0 km/h (0 Bft)
04.03.2018 06:05 -7,2 C -1,1 C -6,4 C -6,8 C -6,8 C 0,4 C 76 % 79 % 1005,9 hPa 0,0 l/m 0,0 km/h (0 Bft) N-NO 22 0 min -10,7 C -6,8 C 0,0 km/h (0 Bft)
04.03.2018 06:11 -7,1 C -1,1 C -6,3 C -6,7 C -6,7 C 0,4 C 76 % 78 % 1005,9 hPa 0,0 l/m 0,0 km/h (0 Bft) N 0 0 min -10,6 C -6,7 C 0,0 km/h (0 Bft)
04.03.2018 06:26 -6,8 C -1,1 C -6,1 C -6,3 C -6,3 C 0,5 C 76 % 78 % 1005,9 hPa 0,0 l/m 0,0 km/h (0 Bft) N-NO 22 0 min -10,3 C -6,3 C 0,0 km/h (0 Bft)
04.03.2018 06:35 -6,7 C -1,1 C -6,1 C -6,3 C -6,3 C 0,4 C 76 % 78 % 1005,9 hPa 0,0 l/m 0,0 km/h (0 Bft) N-NO 22 0 min -10,2 C -6,3 C 0,0 km/h (0 Bft)
04.03.2018 06:40 -6,7 C -1,1 C -6,1 C -6,4 C -6,4 C 0,3 C 76 % 78 % 1006,2 hPa 0,0 l/m 0,0 km/h (0 Bft) NO 45 0 min -10,2 C -6,4 C 0,0 km/h (0 Bft)
04.03.2018 06:45 -6,5 C -1,1 C -6,1 C -6,4 C -6,4 C 0,1 C 76 % 79 % 1006,2 hPa 0,0 l/m 0,0 km/h (0 Bft) N-NO 22 0 min -10,0 C -6,4 C 0,0 km/h (0 Bft)
04.03.2018 06:50 -6,5 C -1,1 C -6,1 C -6,4 C -6,4 C 0,1 C 76 % 78 % 1006,2 hPa 0,0 l/m 0,0 km/h (0 Bft) O-NO 67 0 min -10,0 C -6,4 C 0,0 km/h (0 Bft)
04.03.2018 06:55 -6,5 C -1,1 C -6,1 C -6,4 C -6,4 C 0,1 C 76 % 79 % 1006,2 hPa 0,0 l/m 0,0 km/h (0 Bft) O-NO 67 0 min -10,0 C -6,4 C 0,0 km/h (0 Bft)
04.03.2018 07:00 -6,5 C -1,1 C -6,1 C -6,4 C -6,4 C 0,1 C 76 % 79 % 1005,6 hPa 0,0 l/m 0,0 km/h (0 Bft) N-NO 22 0 min -10,0 C -6,4 C 0,0 km/h (0 Bft)
04.03.2018 07:05 -6,3 C -1,1 C -6,0 C -6,3 C -6,3 C 0,0 C 76 % 79 % 1005,6 hPa 0,0 l/m 0,0 km/h (0 Bft) NO 45 0 min -9,8 C -6,3 C 0,0 km/h (0 Bft)
04.03.2018 07:10 -6,4 C -1,1 C -5,9 C -6,3 C -6,3 C 0,1 C 76 % 79 % 1005,6 hPa 0,0 l/m 0,0 km/h (0 Bft) NO 45 0 min -9,9 C -6,3 C 0,0 km/h (0 Bft)
04.03.2018 07:15 -6,3 C -1,1 C -6,0 C -6,2 C -6,2 C 0,1 C 76 % 79 % 1005,6 hPa 0,0 l/m 0,0 km/h (0 Bft) N-NO 22 0 min -9,8 C -6,2 C 1,9 km/h (1 Bft)
04.03.2018 07:20 -6,3 C -1,1 C -5,9 C -6,1 C -6,1 C 0,2 C 76 % 79 % 1005,9 hPa 0,0 l/m 0,3 km/h (0 Bft) N-NO 22 0 min -9,8 C -6,1 C 0,0 km/h (0 Bft)
04.03.2018 07:25 -6,1 C -1,1 C -5,9 C -6,1 C -6,1 C 0,0 C 77 % 79 % 1005,9 hPa 0,0 l/m 0,3 km/h (0 Bft) N-NO 22 0 min -9,5 C -6,1 C 0,0 km/h (0 Bft)
04.03.2018 07:30 -6,1 C -1,1 C -5,7 C -5,9 C -5,9 C 0,2 C 77 % 79 % 1005,9 hPa 0,0 l/m 0,0 km/h (0 Bft) N-NO 22 0 min -9,5 C -5,9 C 0,0 km/h (0 Bft)
04.03.2018 07:35 -5,9 C -1,1 C -5,3 C -5,3 C -5,3 C 0,6 C 77 % 79 % 1005,9 hPa 0,0 l/m 0,0 km/h (0 Bft) N-NO 22 0 min -9,3 C -5,3 C 0,0 km/h (0 Bft)
04.03.2018 07:40 -5,7 C -1,1 C -5,3 C -4,9 C -4,9 C 0,8 C 77 % 79 % 1005,9 hPa 0,0 l/m 0,0 km/h (0 Bft) N-NO 22 0 min -9,1 C -4,9 C 0,0 km/h (0 Bft)
04.03.2018 07:45 -5,3 C -1,1 C -4,7 C -4,1 C -4,1 C 1,2 C 77 % 79 % 1005,9 hPa 0,0 l/m 0,2 km/h (0 Bft) N-NO 22 0 min -8,7 C -4,1 C 0,0 km/h (0 Bft)
04.03.2018 07:50 -5,1 C -1,1 C -4,5 C -3,3 C -3,3 C 1,8 C 77 % 79 % 1005,9 hPa 0,0 l/m 0,2 km/h (0 Bft) N-NO 22 5 min -8,5 C -3,3 C 0,0 km/h (0 Bft)
04.03.2018 07:55 -4,7 C -1,1 C -4,1 C -2,7 C -2,7 C 2,0 C 77 % 78 % 1005,9 hPa 0,0 l/m 0,0 km/h (0 Bft) N-NO 22 5 min -8,1 C -2,7 C 0,0 km/h (0 Bft)
04.03.2018 08:00 -4,5 C -1,1 C -4,0 C -2,6 C -2,6 C 1,9 C 77 % 78 % 1005,8 hPa 0,0 l/m 0,3 km/h (0 Bft) N-NO 22 5 min -7,9 C -2,6 C 1,8 km/h (1 Bft)
04.03.2018 08:05 -4,3 C -1,1 C -3,7 C -2,7 C -2,7 C 1,6 C 75 % 77 % 1005,8 hPa 0,0 l/m 1,3 km/h (1 Bft) N-NW 337 0 min -8,0 C -2,7 C 3,5 km/h (1 Bft)
04.03.2018 08:11 -4,1 C -1,1 C -3,5 C -2,7 C -2,7 C 1,4 C 75 % 76 % 1005,8 hPa 0,0 l/m 1,1 km/h (1 Bft) N 0 0 min -7,9 C -2,7 C 0,0 km/h (0 Bft)
04.03.2018 08:26 -3,3 C -1,1 C -2,7 C -2,0 C -2,0 C 1,3 C 74 % 75 % 1005,9 hPa 0,0 l/m 0,2 km/h (0 Bft) N-NW 337 0 min -7,3 C -2,0 C 0,0 km/h (0 Bft)
04.03.2018 08:35 -3,1 C -1,1 C -2,5 C -1,5 C -1,5 C 1,6 C 73 % 75 % 1005,9 hPa 0,0 l/m 0,0 km/h (0 Bft) N-NW 337 0 min -7,2 C -1,5 C 0,0 km/h (0 Bft)
04.03.2018 08:40 -2,9 C -1,1 C -2,4 C -1,2 C -1,2 C 1,7 C 73 % 75 % 1005,5 hPa 0,0 l/m 0,2 km/h (0 Bft) N-NW 337 0 min -7,0 C -1,2 C 0,0 km/h (0 Bft)
04.03.2018 08:45 -2,8 C -1,1 C -1,9 C -0,7 C -0,7 C 2,1 C 72 % 75 % 1005,5 hPa 0,0 l/m 0,3 km/h (0 Bft) N-NW 337 0 min -7,1 C -0,7 C 0,0 km/h (0 Bft)
04.03.2018 08:50 -2,5 C -1,1 C -1,3 C -0,2 C -0,2 C 2,3 C 72 % 75 % 1005,5 hPa 0,0 l/m 0,3 km/h (0 Bft) N-NW 337 0 min -6,8 C -0,2 C 0,0 km/h (0 Bft)
04.03.2018 08:55 -2,1 C -1,1 C -0,9 C 1,1 C 1,1 C 3,2 C 72 % 73 % 1005,5 hPa 0,0 l/m 0,5 km/h (0 Bft) NW 315 5 min -6,5 C 1,1 C 1,9 km/h (1 Bft)
04.03.2018 09:00 -2,0 C -1,1 C -0,7 C 1,7 C 1,7 C 3,7 C 71 % 73 % 1005,9 hPa 0,0 l/m 0,6 km/h (0 Bft) NW 315 5 min -6,5 C 1,7 C 0,0 km/h (0 Bft)
04.03.2018 09:05 -1,7 C -1,1 C 0,1 C 2,3 C 2,3 C 4,0 C 71 % 72 % 1005,9 hPa 0,0 l/m 1,0 km/h (0 Bft) NW 315 5 min -6,2 C 2,3 C 1,6 km/h (1 Bft)
04.03.2018 09:10 -1,3 C -1,1 C 0,4 C 2,7 C 2,7 C 4,0 C 71 % 72 % 1005,9 hPa 0,0 l/m 0,6 km/h (0 Bft) NW 315 5 min -5,9 C 2,7 C 0,0 km/h (0 Bft)
04.03.2018 09:15 -0,9 C -1,1 C 0,7 C 2,7 C 2,7 C 3,6 C 70 % 70 % 1005,9 hPa 0,0 l/m 0,3 km/h (0 Bft) NW 315 5 min -5,7 C 2,7 C 0,0 km/h (0 Bft)
04.03.2018 09:20 -0,7 C -1,1 C 0,5 C 2,5 C 2,5 C 3,2 C 69 % 70 % 1005,5 hPa 0,0 l/m 0,3 km/h (0 Bft) NW 315 0 min -5,7 C 2,5 C 0,0 km/h (0 Bft)
04.03.2018 09:25 -0,5 C -1,1 C 0,5 C 2,3 C 2,3 C 2,8 C 68 % 69 % 1005,5 hPa 0,0 l/m 0,2 km/h (0 Bft) NW 315 0 min -5,7 C 2,3 C 0,0 km/h (0 Bft)
04.03.2018 09:30 -0,5 C -1,1 C 0,7 C 2,2 C 2,2 C 2,7 C 68 % 69 % 1005,5 hPa 0,0 l/m 0,3 km/h (0 Bft) W 270 0 min -5,7 C 2,2 C 4,2 km/h (1 Bft)
04.03.2018 09:35 -0,3 C -1,1 C 0,9 C 2,1 C 2,1 C 2,4 C 67 % 69 % 1005,5 hPa 0,0 l/m 1,0 km/h (0 Bft) W 270 0 min -5,7 C 2,1 C 0,0 km/h (0 Bft)
04.03.2018 09:40 -0,1 C -1,1 C 1,1 C 2,2 C 2,2 C 2,3 C 67 % 68 % 1005,4 hPa 0,0 l/m 1,0 km/h (0 Bft) O-NO 67 0 min -5,5 C 2,2 C 0,0 km/h (0 Bft)
04.03.2018 09:45 0,3 C -1,1 C 1,4 C 2,8 C 2,8 C 2,5 C 67 % 68 % 1005,4 hPa 0,0 l/m 0,2 km/h (0 Bft) NW 315 0 min -5,1 C 2,8 C 1,8 km/h (1 Bft)
04.03.2018 09:50 0,5 C -1,1 C 1,8 C 3,3 C 3,3 C 2,8 C 66 % 68 % 1005,4 hPa 0,0 l/m 0,2 km/h (0 Bft) NO 45 0 min -5,1 C 3,3 C 0,0 km/h (0 Bft)
04.03.2018 09:55 0,9 C -1,1 C 2,2 C 4,2 C 4,2 C 3,3 C 66 % 67 % 1005,4 hPa 0,0 l/m 0,8 km/h (0 Bft) O 90 5 min -4,7 C 4,2 C 4,7 km/h (1 Bft)
04.03.2018 10:00 1,2 C -1,1 C 2,4 C 4,5 C 4,5 C 3,3 C 65 % 65 % 1005,7 hPa 0,0 l/m 1,0 km/h (0 Bft) O-NO 67 5 min -4,6 C 4,5 C 2,9 km/h (1 Bft)
04.03.2018 10:05 1,4 C -1,1 C 2,4 C 4,2 C 4,2 C 2,8 C 64 % 65 % 1005,7 hPa 0,0 l/m 1,6 km/h (1 Bft) O 90 0 min -4,6 C 4,2 C 6,1 km/h (2 Bft)
04.03.2018 10:11 1,6 C -1,1 C 2,5 C 4,4 C 4,4 C 2,8 C 64 % 64 % 1005,7 hPa 0,0 l/m 1,4 km/h (1 Bft) N 0 0 min -4,5 C 4,4 C 2,4 km/h (1 Bft)
04.03.2018 10:26 2,2 C -1,0 C 3,4 C 5,1 C 5,1 C 2,9 C 62 % 63 % 1005,8 hPa 0,0 l/m 1,8 km/h (1 Bft) O-NO 67 0 min -4,3 C 5,1 C 2,3 km/h (1 Bft)
04.03.2018 10:35 2,4 C -1,0 C 3,9 C 5,2 C 5,2 C 2,8 C 62 % 62 % 1005,8 hPa 0,0 l/m 1,3 km/h (1 Bft) O 90 0 min -4,1 C 5,2 C 0,0 km/h (0 Bft)
04.03.2018 10:40 2,7 C -1,0 C 4,0 C 5,5 C 5,5 C 2,8 C 61 % 62 % 1005,9 hPa 0,0 l/m 1,6 km/h (1 Bft) NO 45 0 min -4,1 C 5,5 C 3,1 km/h (1 Bft)
04.03.2018 10:45 2,9 C -1,0 C 4,3 C 6,0 C 6,0 C 3,1 C 61 % 61 % 1005,9 hPa 0,0 l/m 1,1 km/h (1 Bft) N 360 0 min -3,9 C 6,0 C 2,3 km/h (1 Bft)
04.03.2018 10:50 3,1 C -1,0 C 4,3 C 6,3 C 6,3 C 3,2 C 61 % 61 % 1005,9 hPa 0,0 l/m 0,6 km/h (0 Bft) O 90 0 min -3,7 C 6,3 C 0,0 km/h (0 Bft)
04.03.2018 10:55 3,5 C -1,0 C 4,7 C 6,7 C 6,7 C 3,2 C 60 % 61 % 1005,9 hPa 0,0 l/m 0,6 km/h (0 Bft) O-NO 67 0 min -3,5 C 6,7 C 0,0 km/h (0 Bft)
04.03.2018 11:00 3,6 C -0,9 C 4,8 C 6,7 C 6,7 C 3,1 C 60 % 61 % 1005,9 hPa 0,0 l/m 0,8 km/h (0 Bft) NO 45 0 min -3,4 C 6,7 C 0,0 km/h (0 Bft)
04.03.2018 11:05 4,0 C -0,9 C 5,1 C 7,1 C 7,1 C 3,1 C 60 % 59 % 1005,9 hPa 0,0 l/m 0,5 km/h (0 Bft) NO 45 0 min -3,0 C 7,1 C 0,0 km/h (0 Bft)
04.03.2018 11:10 4,2 C -0,9 C 5,4 C 8,1 C 8,1 C 3,9 C 60 % 59 % 1005,9 hPa 0,0 l/m 1,1 km/h (1 Bft) NO 45 5 min -2,9 C 8,1 C 1,8 km/h (1 Bft)
04.03.2018 11:15 4,7 C -0,9 C 5,7 C 9,5 C 9,5 C 4,8 C 58 % 58 % 1005,9 hPa 0,0 l/m 2,6 km/h (1 Bft) NW 315 5 min -2,8 C 9,5 C 3,5 km/h (1 Bft)
04.03.2018 11:20 5,0 C -0,9 C 5,4 C 10,5 C 10,5 C 5,5 C 58 % 58 % 1005,3 hPa 0,0 l/m 2,6 km/h (1 Bft) NO 45 5 min -2,6 C 10,5 C 7,4 km/h (2 Bft)
04.03.2018 11:25 4,9 C -0,9 C 5,2 C 9,5 C 9,5 C 4,6 C 56 % 57 % 1005,3 hPa 0,0 l/m 4,3 km/h (1 Bft) O-NO 67 5 min -3,1 C 9,5 C 10,5 km/h (2 Bft)
04.03.2018 11:30 4,9 C -0,8 C 5,0 C 8,2 C 8,2 C 3,3 C 56 % 58 % 1005,3 hPa 0,0 l/m 5,6 km/h (1 Bft) O-NO 67 5 min -3,1 C 7,5 C 6,0 km/h (2 Bft)
04.03.2018 11:35 5,1 C -0,8 C 4,9 C 8,7 C 8,7 C 3,6 C 57 % 58 % 1005,3 hPa 0,0 l/m 4,2 km/h (1 Bft) NO 45 5 min -2,7 C 8,7 C 5,8 km/h (2 Bft)
04.03.2018 11:40 5,3 C -0,8 C 4,9 C 8,8 C 8,8 C 3,5 C 57 % 59 % 1004,9 hPa 0,0 l/m 3,1 km/h (1 Bft) S-SO 157 5 min -2,5 C 8,8 C 1,8 km/h (1 Bft)
04.03.2018 11:45 5,5 C -0,8 C 5,2 C 10,1 C 10,1 C 4,6 C 57 % 59 % 1004,9 hPa 0,0 l/m 2,7 km/h (1 Bft) O-NO 67 5 min -2,3 C 10,1 C 4,7 km/h (1 Bft)
04.03.2018 11:50 5,5 C -0,8 C 5,7 C 10,2 C 10,2 C 4,7 C 55 % 58 % 1004,9 hPa 0,0 l/m 3,7 km/h (1 Bft) O-NO 67 5 min -2,8 C 10,2 C 3,7 km/h (1 Bft)
04.03.2018 11:55 5,7 C -0,8 C 6,1 C 11,7 C 11,7 C 6,0 C 56 % 58 % 1004,9 hPa 0,0 l/m 3,2 km/h (1 Bft) O-SO 112 5 min -2,4 C 11,7 C 2,3 km/h (1 Bft)
04.03.2018 12:00 6,0 C -0,8 C 6,0 C 12,4 C 12,4 C 6,4 C 55 % 58 % 1005,2 hPa 0,0 l/m 1,8 km/h (1 Bft) O-SO 112 5 min -2,3 C 12,4 C 5,5 km/h (1 Bft)
04.03.2018 12:05 6,4 C -0,7 C 6,0 C 13,4 C 13,4 C 7,0 C 55 % 58 % 1005,2 hPa 0,0 l/m 1,3 km/h (1 Bft) O-SO 112 5 min -2,0 C 13,4 C 2,7 km/h (1 Bft)
04.03.2018 12:11 6,8 C -0,7 C 5,9 C 13,9 C 13,9 C 7,1 C 55 % 58 % 1005,2 hPa 0,0 l/m 1,3 km/h (1 Bft) N 0 6 min -1,6 C 13,9 C 1,9 km/h (1 Bft)
04.03.2018 12:26 6,9 C -0,7 C 5,9 C 13,2 C 13,2 C 6,3 C 54 % 59 % 1004,7 hPa 0,0 l/m 2,9 km/h (1 Bft) O 90 15 min -1,8 C 13,2 C 4,8 km/h (1 Bft)
04.03.2018 12:35 7,2 C -0,7 C 5,9 C 13,4 C 13,4 C 6,2 C 54 % 59 % 1004,7 hPa 0,0 l/m 3,1 km/h (1 Bft) O-NO 67 9 min -1,5 C 13,4 C 4,2 km/h (1 Bft)
04.03.2018 12:40 7,2 C -0,6 C 5,9 C 13,4 C 13,4 C 6,2 C 54 % 59 % 1004,3 hPa 0,0 l/m 2,4 km/h (1 Bft) NO 45 5 min -1,5 C 13,4 C 2,1 km/h (1 Bft)
04.03.2018 12:45 7,6 C -0,6 C 6,0 C 13,8 C 13,8 C 6,2 C 54 % 59 % 1004,3 hPa 0,0 l/m 2,3 km/h (1 Bft) SO 135 5 min -1,1 C 13,8 C 0,0 km/h (0 Bft)
04.03.2018 12:50 7,8 C -0,6 C 6,0 C 14,0 C 14,0 C 6,2 C 53 % 59 % 1004,3 hPa 0,0 l/m 1,6 km/h (1 Bft) O-NO 67 5 min -1,2 C 14,0 C 2,1 km/h (1 Bft)
04.03.2018 12:55 7,9 C -0,6 C 6,1 C 14,0 C 14,0 C 6,1 C 52 % 59 % 1004,3 hPa 0,0 l/m 1,9 km/h (1 Bft) SO 135 5 min -1,3 C 14,0 C 1,8 km/h (1 Bft)
04.03.2018 13:00 8,1 C -0,6 C 6,2 C 14,1 C 14,1 C 6,0 C 52 % 59 % 1004,0 hPa 0,0 l/m 1,9 km/h (1 Bft) O-NO 67 5 min -1,2 C 14,1 C 2,3 km/h (1 Bft)
04.03.2018 13:05 7,7 C -0,6 C 6,2 C 13,4 C 13,4 C 5,7 C 51 % 58 % 1004,0 hPa 0,0 l/m 2,7 km/h (1 Bft) O-NO 67 5 min -1,8 C 13,4 C 2,1 km/h (1 Bft)
04.03.2018 13:10 7,5 C -0,6 C 6,5 C 12,9 C 12,9 C 5,4 C 51 % 58 % 1004,0 hPa 0,0 l/m 4,7 km/h (1 Bft) O-NO 67 5 min -2,0 C 12,9 C 8,0 km/h (2 Bft)
04.03.2018 13:15 7,5 C -0,5 C 6,7 C 12,3 C 12,3 C 4,8 C 52 % 58 % 1004,0 hPa 0,0 l/m 4,8 km/h (1 Bft) O-NO 67 5 min -1,7 C 12,3 C 7,9 km/h (2 Bft)
04.03.2018 13:20 7,3 C -0,5 C 6,7 C 12,3 C 12,3 C 5,0 C 52 % 58 % 1003,8 hPa 0,0 l/m 4,2 km/h (1 Bft) O-NO 67 5 min -1,9 C 12,3 C 2,6 km/h (1 Bft)
04.03.2018 13:25 7,7 C -0,5 C 6,7 C 13,0 C 13,0 C 5,3 C 53 % 58 % 1003,8 hPa 0,0 l/m 3,4 km/h (1 Bft) NO 45 5 min -1,3 C 13,0 C 6,9 km/h (2 Bft)
04.03.2018 13:30 7,4 C -0,5 C 6,7 C 12,4 C 12,4 C 5,0 C 52 % 57 % 1003,8 hPa 0,0 l/m 4,2 km/h (1 Bft) NO 45 5 min -1,8 C 12,4 C 8,4 km/h (2 Bft)
04.03.2018 13:35 7,2 C -0,5 C 6,8 C 12,3 C 12,3 C 5,1 C 53 % 58 % 1003,8 hPa 0,0 l/m 5,0 km/h (1 Bft) O-NO 67 5 min -1,7 C 12,3 C 2,1 km/h (1 Bft)
04.03.2018 13:40 7,5 C -0,5 C 6,8 C 12,4 C 12,4 C 4,9 C 53 % 58 % 1003,9 hPa 0,0 l/m 4,3 km/h (1 Bft) O-NO 67 5 min -1,4 C 12,4 C 3,5 km/h (1 Bft)
04.03.2018 13:45 7,4 C -0,5 C 6,9 C 12,3 C 12,3 C 4,9 C 53 % 58 % 1003,9 hPa 0,0 l/m 4,8 km/h (1 Bft) O-NO 67 5 min -1,5 C 12,3 C 5,6 km/h (1 Bft)
04.03.2018 13:50 7,6 C -0,5 C 7,1 C 12,8 C 12,8 C 5,2 C 54 % 58 % 1003,9 hPa 0,0 l/m 3,9 km/h (1 Bft) SO 135 5 min -1,1 C 12,8 C 2,9 km/h (1 Bft)
04.03.2018 13:55 8,0 C -0,3 C 6,9 C 13,5 C 13,5 C 5,5 C 53 % 58 % 1003,9 hPa 0,0 l/m 2,3 km/h (1 Bft) O-NO 67 5 min -1,0 C 13,5 C 6,6 km/h (2 Bft)
04.03.2018 14:00 7,9 C -0,3 C 7,1 C 13,5 C 13,5 C 5,6 C 53 % 58 % 1003,9 hPa 0,0 l/m 2,4 km/h (1 Bft) O-NO 67 5 min -1,1 C 13,5 C 1,8 km/h (1 Bft)
04.03.2018 14:05 8,1 C -0,3 C 7,1 C 13,9 C 13,9 C 5,8 C 53 % 58 % 1003,9 hPa 0,0 l/m 2,7 km/h (1 Bft) O-SO 112 5 min -0,9 C 13,9 C 4,8 km/h (1 Bft)
04.03.2018 14:11 7,9 C -0,3 C 7,0 C 13,7 C 13,7 C 5,8 C 52 % 57 % 1003,9 hPa 0,0 l/m 2,7 km/h (1 Bft) N 0 6 min -1,3 C 13,7 C 4,5 km/h (1 Bft)
04.03.2018 14:26 7,6 C -0,3 C 7,1 C 12,6 C 12,6 C 5,0 C 53 % 57 % 1004,1 hPa 0,0 l/m 4,2 km/h (1 Bft) O 90 15 min -1,4 C 12,6 C 5,5 km/h (1 Bft)
04.03.2018 14:35 7,9 C -0,2 C 7,2 C 12,5 C 12,5 C 4,6 C 53 % 57 % 1004,1 hPa 0,0 l/m 4,0 km/h (1 Bft) O-NO 67 9 min -1,1 C 12,5 C 6,0 km/h (2 Bft)
04.03.2018 14:40 7,9 C -0,2 C 7,1 C 12,7 C 12,7 C 4,8 C 53 % 57 % 1003,6 hPa 0,0 l/m 3,7 km/h (1 Bft) NO 45 5 min -1,1 C 12,7 C 7,6 km/h (2 Bft)
04.03.2018 14:45 7,7 C -0,2 C 7,2 C 12,4 C 12,4 C 4,7 C 52 % 57 % 1003,6 hPa 0,0 l/m 4,3 km/h (1 Bft) NO 45 5 min -1,5 C 12,4 C 5,1 km/h (1 Bft)
04.03.2018 14:50 7,7 C -0,2 C 7,2 C 12,3 C 12,3 C 4,6 C 52 % 57 % 1003,6 hPa 0,0 l/m 4,8 km/h (1 Bft) O-NO 67 5 min -1,5 C 12,3 C 6,0 km/h (2 Bft)
04.03.2018 14:55 7,9 C -0,2 C 7,2 C 12,2 C 12,2 C 4,3 C 52 % 57 % 1003,6 hPa 0,0 l/m 4,2 km/h (1 Bft) NO 45 5 min -1,3 C 12,2 C 4,7 km/h (1 Bft)
04.03.2018 15:00 7,9 C -0,2 C 7,3 C 12,3 C 12,3 C 4,4 C 52 % 57 % 1003,5 hPa 0,0 l/m 3,7 km/h (1 Bft) N-NO 22 5 min -1,3 C 12,3 C 3,1 km/h (1 Bft)
04.03.2018 15:05 8,0 C -0,2 C 7,4 C 12,9 C 12,9 C 4,9 C 53 % 57 % 1003,5 hPa 0,0 l/m 2,4 km/h (1 Bft) O-SO 112 5 min -1,0 C 12,9 C 0,0 km/h (0 Bft)
04.03.2018 15:10 8,3 C -0,2 C 7,4 C 13,3 C 13,3 C 5,0 C 52 % 57 % 1003,5 hPa 0,0 l/m 2,1 km/h (1 Bft) O-NO 67 5 min -1,0 C 13,3 C 4,8 km/h (1 Bft)
04.03.2018 15:15 8,0 C -0,2 C 7,4 C 12,8 C 12,8 C 4,8 C 52 % 56 % 1003,5 hPa 0,0 l/m 3,2 km/h (1 Bft) O 90 5 min -1,2 C 12,8 C 0,0 km/h (0 Bft)
04.03.2018 15:20 8,0 C -0,2 C 7,3 C 12,7 C 12,7 C 4,7 C 51 % 57 % 1003,5 hPa 0,0 l/m 4,5 km/h (1 Bft) O-NO 67 5 min -1,5 C 12,7 C 7,9 km/h (2 Bft)
04.03.2018 15:25 8,0 C -0,2 C 7,3 C 12,0 C 12,0 C 4,0 C 52 % 56 % 1003,5 hPa 0,0 l/m 5,0 km/h (1 Bft) NO 45 5 min -1,2 C 12,0 C 7,2 km/h (2 Bft)
04.03.2018 15:30 7,9 C -0,2 C 7,4 C 11,6 C 11,6 C 3,7 C 52 % 56 % 1003,5 hPa 0,0 l/m 5,8 km/h (2 Bft) O-NO 67 5 min -1,3 C 11,6 C 6,9 km/h (2 Bft)
04.03.2018 15:35 7,9 C -0,2 C 7,3 C 11,3 C 11,3 C 3,4 C 52 % 56 % 1003,5 hPa 0,0 l/m 5,5 km/h (1 Bft) O-NO 67 5 min -1,3 C 11,3 C 7,9 km/h (2 Bft)
04.03.2018 15:40 8,0 C -0,2 C 7,3 C 11,4 C 11,4 C 3,4 C 52 % 56 % 1003,4 hPa 0,0 l/m 5,0 km/h (1 Bft) O-NO 67 5 min -1,2 C 11,4 C 5,0 km/h (1 Bft)
04.03.2018 15:45 8,0 C -0,2 C 7,3 C 11,9 C 11,9 C 3,9 C 52 % 57 % 1003,4 hPa 0,0 l/m 4,0 km/h (1 Bft) O-NO 67 5 min -1,2 C 11,9 C 7,4 km/h (2 Bft)
04.03.2018 15:50 8,0 C -0,2 C 7,2 C 11,8 C 11,8 C 3,8 C 52 % 57 % 1003,4 hPa 0,0 l/m 3,7 km/h (1 Bft) O-NO 67 5 min -1,2 C 11,8 C 5,1 km/h (1 Bft)
04.03.2018 15:55 8,0 C 0,0 C 7,2 C 11,7 C 11,7 C 3,7 C 52 % 57 % 1003,4 hPa 0,0 l/m 4,0 km/h (1 Bft) O-NO 67 5 min -1,2 C 11,7 C 4,0 km/h (1 Bft)
04.03.2018 16:00 8,1 C 0,0 C 7,2 C 11,7 C 11,7 C 3,6 C 52 % 57 % 1003,2 hPa 0,0 l/m 3,9 km/h (1 Bft) O-NO 67 5 min -1,2 C 11,7 C 4,3 km/h (1 Bft)
04.03.2018 16:05 8,1 C 0,0 C 7,1 C 11,7 C 11,7 C 3,6 C 52 % 57 % 1003,2 hPa 0,0 l/m 3,4 km/h (1 Bft) O-NO 67 5 min -1,2 C 11,7 C 3,7 km/h (1 Bft)
04.03.2018 16:11 8,1 C 0,0 C 6,9 C 11,6 C 11,6 C 3,5 C 52 % 57 % 1003,2 hPa 0,0 l/m 3,2 km/h (1 Bft) N 0 6 min -1,2 C 11,6 C 6,4 km/h (2 Bft)
04.03.2018 16:26 7,9 C 0,0 C 6,6 C 9,9 C 9,9 C 2,0 C 52 % 58 % 1003,2 hPa 0,0 l/m 5,1 km/h (1 Bft) O-NO 67 0 min -1,3 C 9,6 C 4,8 km/h (1 Bft)
04.03.2018 16:35 7,7 C 0,0 C 6,5 C 8,9 C 8,9 C 1,2 C 52 % 58 % 1003,2 hPa 0,0 l/m 6,0 km/h (2 Bft) O-NO 67 0 min -1,5 C 8,2 C 10,6 km/h (2 Bft)
04.03.2018 16:40 7,4 C 0,0 C 6,4 C 7,9 C 7,9 C 0,5 C 53 % 59 % 1003,2 hPa 0,0 l/m 7,4 km/h (2 Bft) O-NO 67 0 min -1,5 C 6,7 C 10,9 km/h (2 Bft)
04.03.2018 16:45 7,2 C 0,0 C 6,1 C 7,6 C 6,8 C 0,4 C 53 % 59 % 1003,2 hPa 0,0 l/m 8,5 km/h (2 Bft) O-NO 67 0 min -1,7 C 5,1 C 13,7 km/h (3 Bft)
04.03.2018 16:50 7,1 C 0,0 C 6,0 C 7,0 C 6,2 C 0,0 C 54 % 59 % 1003,2 hPa 0,0 l/m 8,9 km/h (2 Bft) O-NO 67 0 min -1,6 C 4,3 C 10,6 km/h (2 Bft)
04.03.2018 16:55 6,9 C 0,0 C 6,1 C 6,8 C 6,0 C 0,0 C 54 % 60 % 1003,2 hPa 0,0 l/m 8,9 km/h (2 Bft) O 90 0 min -1,8 C 4,1 C 12,7 km/h (3 Bft)
04.03.2018 17:00 6,7 C 0,0 C 6,1 C 6,6 C 5,6 C 0,0 C 54 % 60 % 1002,7 hPa 0,0 l/m 9,2 km/h (2 Bft) NO 45 0 min -1,9 C 3,6 C 11,3 km/h (2 Bft)
04.03.2018 17:05 6,5 C 0,0 C 5,9 C 6,3 C 5,2 C 0,0 C 55 % 60 % 1002,7 hPa 0,0 l/m 8,5 km/h (2 Bft) O-NO 67 0 min -1,9 C 3,2 C 5,0 km/h (1 Bft)
04.03.2018 17:10 6,3 C 0,0 C 5,6 C 6,0 C 5,4 C 0,0 C 55 % 60 % 1002,7 hPa 0,0 l/m 6,6 km/h (2 Bft) O-NO 67 0 min -2,1 C 4,0 C 6,1 km/h (2 Bft)
04.03.2018 17:15 6,1 C 0,0 C 5,2 C 5,9 C 5,6 C 0,0 C 55 % 61 % 1002,7 hPa 0,0 l/m 4,7 km/h (1 Bft) O-SO 112 0 min -2,2 C 4,9 C 3,5 km/h (1 Bft)
04.03.2018 17:20 5,9 C 0,0 C 4,8 C 5,7 C 5,4 C 0,0 C 56 % 61 % 1002,7 hPa 0,0 l/m 4,5 km/h (1 Bft) NO 45 0 min -2,2 C 5,4 C 6,8 km/h (2 Bft)
04.03.2018 17:25 5,7 C 0,0 C 4,5 C 5,4 C 4,9 C 0,0 C 56 % 62 % 1002,7 hPa 0,0 l/m 4,7 km/h (1 Bft) O-NO 67 0 min -2,4 C 4,1 C 4,3 km/h (1 Bft)
04.03.2018 17:30 5,6 C 0,0 C 4,4 C 5,3 C 4,6 C 0,0 C 57 % 62 % 1002,7 hPa 0,0 l/m 4,5 km/h (1 Bft) NO 45 0 min -2,2 C 4,6 C 5,5 km/h (1 Bft)
04.03.2018 17:35 5,3 C 0,0 C 4,1 C 5,0 C 4,3 C 0,0 C 57 % 63 % 1002,7 hPa 0,0 l/m 3,9 km/h (1 Bft) NO 45 0 min -2,5 C 4,3 C 3,5 km/h (1 Bft)
04.03.2018 17:40 5,2 C 0,0 C 3,8 C 4,8 C 4,0 C 0,0 C 57 % 64 % 1002,7 hPa 0,0 l/m 3,7 km/h (1 Bft) O-NO 67 0 min -2,6 C 4,0 C 3,5 km/h (1 Bft)
04.03.2018 17:45 4,9 C 0,0 C 3,5 C 4,3 C 3,2 C 0,0 C 58 % 65 % 1002,7 hPa 0,0 l/m 4,0 km/h (1 Bft) O-NO 67 0 min -2,7 C 3,2 C 4,7 km/h (1 Bft)
04.03.2018 17:50 4,8 C 0,0 C 3,5 C 4,2 C 2,9 C 0,0 C 58 % 65 % 1002,7 hPa 0,0 l/m 4,5 km/h (1 Bft) O-NO 67 0 min -2,7 C 2,9 C 4,7 km/h (1 Bft)
04.03.2018 17:55 4,4 C 0,0 C 3,1 C 3,9 C 2,9 C 0,0 C 59 % 66 % 1002,7 hPa 0,0 l/m 3,7 km/h (1 Bft) NO 45 0 min -2,9 C 2,9 C 2,6 km/h (1 Bft)
04.03.2018 18:00 4,4 C 0,0 C 2,9 C 3,9 C 3,0 C 0,0 C 59 % 66 % 1002,9 hPa 0,0 l/m 2,9 km/h (1 Bft) O-NO 67 0 min -2,9 C 3,0 C 4,0 km/h (1 Bft)
04.03.2018 18:05 4,0 C 0,0 C 2,6 C 3,6 C 2,7 C 0,0 C 59 % 66 % 1002,9 hPa 0,0 l/m 2,9 km/h (1 Bft) NO 45 0 min -3,3 C 2,7 C 2,7 km/h (1 Bft)
04.03.2018 18:11 4,0 C 0,0 C 2,4 C 3,5 C 2,6 C 0,0 C 59 % 66 % 1002,9 hPa 0,0 l/m 2,7 km/h (1 Bft) N 0 0 min -3,3 C 2,6 C 2,3 km/h (1 Bft)
04.03.2018 18:26 3,5 C 0,1 C 1,7 C 2,9 C 1,7 C 0,0 C 61 % 68 % 1002,8 hPa 0,0 l/m 1,9 km/h (1 Bft) W-SW 247 0 min -3,3 C 1,7 C 1,6 km/h (1 Bft)
04.03.2018 18:35 3,2 C 0,1 C 1,4 C 2,6 C 1,4 C 0,0 C 61 % 68 % 1002,8 hPa 0,0 l/m 1,0 km/h (0 Bft) W 270 0 min -3,6 C 1,4 C 0,0 km/h (0 Bft)
04.03.2018 18:40 3,2 C 0,1 C 1,3 C 2,5 C 1,2 C 0,0 C 61 % 69 % 1003,1 hPa 0,0 l/m 0,8 km/h (0 Bft) NO 45 0 min -3,6 C 1,2 C 0,0 km/h (0 Bft)
04.03.2018 18:45 3,1 C 0,1 C 1,2 C 2,4 C 1,0 C 0,0 C 61 % 69 % 1003,1 hPa 0,0 l/m 1,0 km/h (0 Bft) O-NO 67 0 min -3,7 C 1,0 C 4,0 km/h (1 Bft)
04.03.2018 18:50 2,9 C 0,1 C 1,1 C 2,3 C 1,0 C 0,0 C 61 % 69 % 1003,1 hPa 0,0 l/m 1,1 km/h (1 Bft) O-NO 67 0 min -3,9 C 1,0 C 2,9 km/h (1 Bft)
04.03.2018 18:55 2,7 C 0,1 C 1,2 C 2,1 C 0,8 C 0,0 C 61 % 69 % 1003,1 hPa 0,0 l/m 1,1 km/h (1 Bft) NW 315 0 min -4,1 C 0,8 C 1,8 km/h (1 Bft)
04.03.2018 19:00 2,7 C 0,1 C 1,1 C 2,0 C 0,6 C 0,0 C 61 % 69 % 1002,8 hPa 0,0 l/m 0,5 km/h (0 Bft) N-NW 337 0 min -4,1 C 0,6 C 1,9 km/h (1 Bft)
04.03.2018 19:05 2,3 C 0,1 C 0,7 C 1,6 C 0,3 C 0,0 C 61 % 69 % 1002,8 hPa 0,0 l/m 0,6 km/h (0 Bft) N-NO 22 0 min -4,4 C 0,3 C 0,0 km/h (0 Bft)
04.03.2018 19:10 2,1 C 0,1 C 0,5 C 1,4 C 0,1 C 0,0 C 61 % 69 % 1002,8 hPa 0,0 l/m 1,3 km/h (1 Bft) W 270 0 min -4,6 C 0,1 C 3,7 km/h (1 Bft)
04.03.2018 19:15 2,0 C 0,1 C 0,5 C 1,3 C 0,0 C 0,0 C 62 % 70 % 1002,8 hPa 0,0 l/m 1,8 km/h (1 Bft) W 270 0 min -4,5 C 0,0 C 2,9 km/h (1 Bft)
04.03.2018 19:20 2,0 C 0,1 C 0,3 C 1,3 C 0,0 C 0,0 C 62 % 70 % 1002,9 hPa 0,0 l/m 1,9 km/h (1 Bft) S 180 0 min -4,5 C 0,0 C 4,3 km/h (1 Bft)
04.03.2018 19:25 1,9 C 0,1 C 0,1 C 1,3 C 0,0 C 0,0 C 63 % 70 % 1002,9 hPa 0,0 l/m 1,4 km/h (1 Bft) S 180 0 min -4,4 C 0,0 C 2,3 km/h (1 Bft)
04.03.2018 19:30 1,7 C 0,1 C 0,1 C 1,1 C -0,2 C 0,0 C 63 % 71 % 1002,9 hPa 0,0 l/m 1,1 km/h (1 Bft) S-SW 202 0 min -4,6 C -0,2 C 2,9 km/h (1 Bft)
04.03.2018 19:35 1,6 C 0,1 C -0,1 C 0,9 C -0,4 C 0,0 C 63 % 72 % 1002,9 hPa 0,0 l/m 1,1 km/h (1 Bft) S-SO 157 0 min -4,7 C -0,4 C 2,6 km/h (1 Bft)
04.03.2018 19:40 1,5 C 0,1 C -0,1 C 0,8 C -0,5 C 0,0 C 64 % 72 % 1002,9 hPa 0,0 l/m 1,4 km/h (1 Bft) W 270 0 min -4,6 C -0,5 C 3,4 km/h (1 Bft)
04.03.2018 19:45 1,5 C 0,1 C -0,1 C 0,8 C -0,5 C 0,0 C 64 % 72 % 1002,9 hPa 0,0 l/m 1,4 km/h (1 Bft) N-NO 22 0 min -4,6 C -0,5 C 0,0 km/h (0 Bft)
04.03.2018 19:50 1,3 C 0,1 C -0,3 C 0,7 C -0,4 C 0,0 C 64 % 72 % 1002,9 hPa 0,0 l/m 1,3 km/h (1 Bft) W-SW 247 0 min -4,7 C -0,4 C 0,0 km/h (0 Bft)
04.03.2018 19:55 1,2 C 0,1 C -0,4 C 0,5 C -0,8 C 0,0 C 64 % 72 % 1002,9 hPa 0,0 l/m 0,6 km/h (0 Bft) SO 135 0 min -4,8 C -0,8 C 1,9 km/h (1 Bft)
04.03.2018 20:00 1,2 C 0,1 C -0,4 C 0,5 C -0,8 C 0,0 C 64 % 72 % 1002,9 hPa 0,0 l/m 0,8 km/h (0 Bft) SW 225 0 min -4,8 C -0,8 C 0,0 km/h (0 Bft)
04.03.2018 20:05 1,1 C 0,1 C -0,5 C 0,4 C -0,9 C 0,0 C 65 % 73 % 1002,9 hPa 0,0 l/m 1,1 km/h (1 Bft) S-SO 157 0 min -4,7 C -0,9 C 0,0 km/h (0 Bft)
04.03.2018 20:11 1,1 C 0,1 C -0,4 C 0,4 C -0,9 C 0,0 C 65 % 73 % 1002,9 hPa 0,0 l/m 1,0 km/h (0 Bft) N 0 0 min -4,7 C -0,9 C 0,0 km/h (0 Bft)
04.03.2018 20:26 1,1 C 0,1 C -0,5 C 0,4 C -0,9 C 0,0 C 65 % 73 % 1002,2 hPa 0,0 l/m 1,1 km/h (1 Bft) W-SW 247 0 min -4,7 C -0,9 C 2,4 km/h (1 Bft)
04.03.2018 20:35 0,8 C 0,1 C -0,9 C 0,2 C -1,0 C 0,0 C 65 % 73 % 1002,2 hPa 0,0 l/m 1,3 km/h (1 Bft) W-NW 292 0 min -5,0 C -1,0 C 0,0 km/h (0 Bft)
04.03.2018 20:40 0,8 C 0,1 C -0,9 C 0,2 C -1,0 C 0,0 C 65 % 73 % 1002,7 hPa 0,0 l/m 1,6 km/h (1 Bft) W 270 0 min -5,0 C -1,0 C 5,8 km/h (2 Bft)
04.03.2018 20:45 0,8 C 0,1 C -0,8 C 0,2 C -0,9 C 0,0 C 65 % 73 % 1002,7 hPa 0,0 l/m 1,6 km/h (1 Bft) N 360 0 min -5,0 C -0,9 C 1,9 km/h (1 Bft)
04.03.2018 20:50 0,9 C 0,1 C -0,7 C 0,3 C -0,8 C 0,0 C 64 % 73 % 1002,7 hPa 0,0 l/m 1,6 km/h (1 Bft) SW 225 0 min -5,1 C -0,8 C 1,9 km/h (1 Bft)
04.03.2018 20:55 0,8 C 0,1 C -0,7 C 0,2 C -0,9 C 0,0 C 64 % 72 % 1002,7 hPa 0,0 l/m 0,8 km/h (0 Bft) W-SW 247 0 min -5,2 C -0,9 C 0,0 km/h (0 Bft)
04.03.2018 21:00 0,8 C 0,1 C -0,8 C 0,2 C -1,0 C 0,0 C 63 % 72 % 1002,2 hPa 0,0 l/m 0,8 km/h (0 Bft) W-NW 292 0 min -5,4 C -1,0 C 0,0 km/h (0 Bft)
04.03.2018 21:05 0,8 C 0,1 C -0,8 C 0,2 C -1,0 C 0,0 C 63 % 72 % 1002,2 hPa 0,0 l/m 1,9 km/h (1 Bft) W-SW 247 0 min -5,4 C -1,0 C 6,6 km/h (2 Bft)
04.03.2018 21:10 0,8 C 0,1 C -0,8 C 0,2 C -0,9 C 0,0 C 63 % 72 % 1002,2 hPa 0,0 l/m 2,1 km/h (1 Bft) W 270 0 min -5,4 C -0,9 C 1,8 km/h (1 Bft)
04.03.2018 21:15 0,9 C 0,1 C -0,9 C 0,3 C -1,0 C 0,0 C 63 % 72 % 1002,2 hPa 0,0 l/m 1,8 km/h (1 Bft) W-NW 292 0 min -5,3 C -1,0 C 0,0 km/h (0 Bft)
04.03.2018 21:20 0,8 C 0,1 C -0,9 C 0,2 C -1,0 C 0,0 C 63 % 72 % 1003,1 hPa 0,0 l/m 1,3 km/h (1 Bft) O-SO 112 0 min -5,4 C -1,0 C 2,4 km/h (1 Bft)
04.03.2018 21:25 0,7 C 0,1 C -0,9 C 0,1 C -1,0 C 0,0 C 63 % 72 % 1003,1 hPa 0,0 l/m 0,8 km/h (0 Bft) SW 225 0 min -5,5 C -1,0 C 3,7 km/h (1 Bft)
04.03.2018 21:30 0,7 C 0,1 C -0,9 C 0,1 C -1,0 C 0,0 C 63 % 72 % 1003,1 hPa 0,0 l/m 1,3 km/h (1 Bft) W-SW 247 0 min -5,5 C -1,0 C 3,1 km/h (1 Bft)
04.03.2018 21:35 0,7 C 0,1 C -0,8 C 0,1 C -1,0 C 0,0 C 63 % 72 % 1003,1 hPa 0,0 l/m 2,1 km/h (1 Bft) SO 135 0 min -5,5 C -1,0 C 0,0 km/h (0 Bft)
04.03.2018 21:40 0,8 C 0,1 C -0,8 C 0,2 C -0,9 C 0,0 C 63 % 71 % 1002,7 hPa 0,0 l/m 2,3 km/h (1 Bft) W-SW 247 0 min -5,4 C -0,9 C 2,1 km/h (1 Bft)
04.03.2018 21:45 0,8 C 0,1 C -0,7 C 0,3 C -0,8 C 0,0 C 62 % 71 % 1002,7 hPa 0,0 l/m 2,4 km/h (1 Bft) S 180 0 min -5,6 C -0,8 C 5,5 km/h (1 Bft)
04.03.2018 21:50 0,9 C 0,1 C -0,6 C 0,3 C -0,8 C 0,0 C 62 % 72 % 1002,7 hPa 0,0 l/m 2,6 km/h (1 Bft) S-SO 157 0 min -5,5 C -0,8 C 3,9 km/h (1 Bft)
04.03.2018 21:55 0,9 C 0,1 C -0,5 C 0,4 C -0,6 C 0,0 C 62 % 71 % 1002,7 hPa 0,0 l/m 1,4 km/h (1 Bft) SW 225 0 min -5,5 C -0,6 C 0,0 km/h (0 Bft)
04.03.2018 22:00 0,8 C 0,1 C -0,5 C 0,3 C -0,8 C 0,0 C 62 % 71 % 1002,7 hPa 0,0 l/m 1,0 km/h (0 Bft) O-SO 112 0 min -5,6 C -0,8 C 4,5 km/h (1 Bft)
04.03.2018 22:05 0,8 C 0,1 C -0,6 C 0,3 C -0,7 C 0,0 C 62 % 71 % 1002,7 hPa 0,0 l/m 1,3 km/h (1 Bft) S 180 0 min -5,6 C -0,7 C 1,6 km/h (1 Bft)
04.03.2018 22:11 0,9 C 0,1 C -0,6 C 0,4 C -0,7 C 0,0 C 62 % 71 % 1002,7 hPa 0,0 l/m 1,4 km/h (1 Bft) N 0 0 min -5,5 C -0,7 C 2,1 km/h (1 Bft)
04.03.2018 22:26 0,8 C 0,1 C -0,9 C 0,2 C -1,0 C 0,0 C 62 % 71 % 1002,7 hPa 0,0 l/m 0,8 km/h (0 Bft) W-SW 247 0 min -5,6 C -1,0 C 3,5 km/h (1 Bft)
04.03.2018 22:35 0,6 C 0,1 C -1,2 C 0,0 C -1,1 C 0,0 C 62 % 71 % 1002,7 hPa 0,0 l/m 0,3 km/h (0 Bft) O-NO 67 0 min -5,8 C -1,1 C 0,0 km/h (0 Bft)
04.03.2018 22:40 0,5 C 0,1 C -1,3 C -0,1 C -1,3 C 0,0 C 62 % 71 % 1002,4 hPa 0,0 l/m 0,2 km/h (0 Bft) S 180 0 min -5,9 C -1,3 C 0,0 km/h (0 Bft)
04.03.2018 22:45 0,4 C 0,1 C -1,5 C -0,2 C -1,5 C 0,0 C 62 % 71 % 1002,4 hPa 0,0 l/m 0,2 km/h (0 Bft) O-NO 67 0 min -6,0 C -1,5 C 0,0 km/h (0 Bft)
04.03.2018 22:50 0,3 C 0,1 C -1,7 C -0,3 C -1,5 C 0,0 C 62 % 71 % 1002,4 hPa 0,0 l/m 0,2 km/h (0 Bft) NW 315 0 min -6,1 C -1,5 C 0,0 km/h (0 Bft)
04.03.2018 22:55 0,3 C 0,1 C -1,7 C -0,3 C -1,6 C 0,0 C 63 % 72 % 1002,4 hPa 0,0 l/m 0,5 km/h (0 Bft) N-NO 22 0 min -5,9 C -1,6 C 0,0 km/h (0 Bft)
04.03.2018 23:00 0,3 C 0,1 C -1,5 C -0,3 C -1,5 C 0,0 C 63 % 73 % 1002,4 hPa 0,0 l/m 0,5 km/h (0 Bft) NW 315 0 min -5,9 C -1,5 C 2,3 km/h (1 Bft)
04.03.2018 23:05 0,5 C 0,1 C -1,3 C -0,1 C -1,2 C 0,0 C 63 % 73 % 1002,4 hPa 0,0 l/m 0,6 km/h (0 Bft) NW 315 0 min -5,7 C -1,2 C 2,7 km/h (1 Bft)
04.03.2018 23:10 0,6 C 0,1 C -1,2 C 0,1 C -1,0 C 0,0 C 63 % 73 % 1002,4 hPa 0,0 l/m 0,6 km/h (0 Bft) W-NW 292 0 min -5,6 C -1,0 C 0,0 km/h (0 Bft)
04.03.2018 23:15 0,5 C 0,1 C -1,1 C 0,0 C -0,9 C 0,0 C 63 % 73 % 1002,4 hPa 0,0 l/m 0,3 km/h (0 Bft) NW 315 0 min -5,7 C -0,9 C 0,0 km/h (0 Bft)
04.03.2018 23:20 0,7 C 0,1 C -0,9 C 0,2 C -0,8 C 0,0 C 63 % 73 % 1002,4 hPa 0,0 l/m 0,3 km/h (0 Bft) N 360 0 min -5,5 C -0,8 C 2,3 km/h (1 Bft)
04.03.2018 23:25 0,8 C 0,1 C -0,5 C 0,4 C -0,3 C 0,0 C 63 % 72 % 1002,4 hPa 0,0 l/m 1,1 km/h (1 Bft) NO 45 0 min -5,4 C -0,3 C 1,9 km/h (1 Bft)
04.03.2018 23:30 0,8 C 0,1 C -0,7 C 0,5 C -0,2 C 0,0 C 63 % 72 % 1002,4 hPa 0,0 l/m 1,0 km/h (0 Bft) W 270 0 min -5,4 C -0,2 C 0,0 km/h (0 Bft)
04.03.2018 23:35 0,8 C 0,1 C -0,7 C 0,4 C -0,3 C 0,0 C 62 % 72 % 1002,4 hPa 0,0 l/m 0,5 km/h (0 Bft) S 180 0 min -5,6 C -0,3 C 6,0 km/h (2 Bft)
04.03.2018 23:40 0,8 C 0,1 C -0,8 C 0,4 C -0,3 C 0,0 C 62 % 71 % 1002,2 hPa 0,0 l/m 0,6 km/h (0 Bft) SO 135 0 min -5,6 C -0,3 C 1,6 km/h (1 Bft)
04.03.2018 23:45 0,9 C 0,1 C -0,8 C 0,5 C -0,2 C 0,0 C 62 % 72 % 1002,2 hPa 0,0 l/m 1,1 km/h (1 Bft) NO 45 0 min -5,5 C -0,2 C 1,6 km/h (1 Bft)
04.03.2018 23:50 0,9 C 0,1 C -0,6 C 0,5 C -0,2 C 0,0 C 62 % 72 % 1002,2 hPa 0,0 l/m 1,3 km/h (1 Bft) SW 225 0 min -5,5 C -0,2 C 4,8 km/h (1 Bft)
04.03.2018 23:55 1,1 C 0,1 C -0,1 C 0,7 C 0,0 C 0,0 C 62 % 71 % 1002,2 hPa 0,0 l/m 1,0 km/h (0 Bft) O-NO 67 0 min -5,3 C 0,0 C 1,9 km/h (1 Bft)
_ Min-Zeit 04:55 00:00 04:45 04:55 04:55 00:00 13:05 15:15 20:26 - 01:10 - - - 01:45 04:55 00:11
Minimum _ -8,1 C -1,1 C -8,1 C -8,5 C -9,4 C 0,0 C 51 % 56 % 1002,2 hPa - 0,0 km/h (0 Bft) - - - -12,4 C -9,4 C 0,0 km/h (0 Bft)
_ Max-Zeit 15:10 18:26 15:05 13:00 13:00 12:11 07:25 05:20 04:40 00:00 17:00 - - 12:26 14:05 13:00 16:45
Maximum _ 8,3 C 0,1 C 7,4 C 14,1 C 14,1 C 7,1 C 77 % 79 % 1006,8 hPa 0,0 l/m 9,2 km/h
NO (2 Bft)
- - 15 min -0,9 C 14,1 C 13,7 km/h
O-NO (3 Bft)
Durchschnitt _ -0,0 C -0,6 C -0,5 C 1,2 C 0,7 C 1,5 C 64 % 69 % 1004,6 hPa #0,0 l/m 1,6 km/h (1 Bft) O-NO - #5:56 h -6,2 C 0,7 C 2,2 km/h (1 Bft)
2018 www.wetterstation-wechselburg.de